Location: Bacharowice
(49.9333°N, 19.5833°E)
Time: 06:49:55
(UTC+00:00)

Cosmos 2228 Rocket - Pass Details

Date: 11 May 2021
Orbit: 618 x 652 km, 82.5° (Epoch: 21 June)

Event Time Altitude Azimuth Distance (km) Brightness Sun altitude
Exits shadow 20:08:06 24° 149° (SSE) 1,317 4.1 -14.3°
Maximum altitude 20:10:21 42° 93° (E) 898 3.6 -14.6°
Drops below altitude 10° 20:14:35 10° 22° (NNE) 2,028 6.1 -15.0°
Sets 20:16:55 0° 16° (NNE) 2,947 7.1 -15.2°
